• In India
  • List of Countries
  • For 7 days
  • Water Temperature
  • Satellite Maps
  • Weather Map
  • Weather Widgets
  • user-avatar
    Login

    Hourly Weather Owczarnia

    Today, 22 September, Saturday

    Time Temperature Precipitation Wind Pressure Humidity
    00:00 +19°C° 0 mm 4 mps 743 mmHg 61%
    01:00 +19°C° 0 mm 4 mps 743 mmHg 62%
    02:00 +17°C° 0 mm 5 mps 743 mmHg 65%
    03:00 +17°C° 0 mm 5 mps 744 mmHg 68%
    04:00 +17°C° 0 mm 6 mps 744 mmHg 70%
    05:00 +16°C° 0.6 mm 6 mps 745 mmHg 74%
    06:00 +14°C° 0.6 mm 5 mps 746 mmHg 79%
    07:00 +13°C° 0.6 mm 5 mps 747 mmHg 83%
    08:00 +13°C° 0.1 mm 5 mps 748 mmHg 80%
    09:00 +13°C° 0.1 mm 4 mps 748 mmHg 77%
    10:00 +14°C° 0.1 mm 4 mps 749 mmHg 74%
    11:00 +14°C° 0 mm 4 mps 749 mmHg 70%
    12:00 +15°C° 0 mm 4 mps 749 mmHg 66%
    13:00 +15°C° 0 mm 4 mps 749 mmHg 62%
    14:00 +15°C° 0 mm 4 mps 748 mmHg 59%
    15:00 +17°C° 0 mm 4 mps 748 mmHg 56%
    16:00 +17°C° 0 mm 4 mps 748 mmHg 53%
    17:00 +16°C° 0.1 mm 3 mps 748 mmHg 58%
    18:00 +14°C° 0.1 mm 3 mps 748 mmHg 62%
    19:00 +12°C° 0.1 mm 3 mps 748 mmHg 66%
    20:00 +13°C° 0 mm 2 mps 748 mmHg 67%
    21:00 +13°C° 0 mm 2 mps 749 mmHg 68%
    22:00 +12°C° 0 mm 2 mps 749 mmHg 68%
    23:00 +12°C° 0 mm 2 mps 749 mmHg 68%

    Tomorrow, 23 September, Sunday

    Time Temperature Precipitation Wind Pressure Humidity
    00:00 +11°C° 0 mm 3 mps 749 mmHg 67%
    01:00 +11°C° 0 mm 3 mps 749 mmHg 66%
    02:00 +11°C° 0 mm 3 mps 748 mmHg 68%
    03:00 +10°C° 0 mm 3 mps 748 mmHg 70%
    04:00 +10°C° 0 mm 3 mps 748 mmHg 72%
    05:00 +10°C° 0 mm 3 mps 748 mmHg 70%
    06:00 +11°C° 0 mm 3 mps 748 mmHg 69%
    07:00 +12°C° 0 mm 4 mps 748 mmHg 67%
    08:00 +13°C° 0 mm 4 mps 747 mmHg 62%
    09:00 +15°C° 0 mm 5 mps 747 mmHg 57%
    10:00 +16°C° 0 mm 6 mps 747 mmHg 52%
    11:00 +16°C° 0.1 mm 5 mps 747 mmHg 53%
    12:00 +16°C° 0.1 mm 5 mps 747 mmHg 53%
    13:00 +16°C° 0.1 mm 5 mps 746 mmHg 53%
    14:00 +16°C° 0 mm 5 mps 746 mmHg 55%
    15:00 +17°C° 0 mm 4 mps 745 mmHg 57%
    16:00 +16°C° 0 mm 3 mps 745 mmHg 59%
    17:00 +16°C° 0 mm 3 mps 744 mmHg 63%
    18:00 +14°C° 0 mm 3 mps 744 mmHg 66%
    19:00 +14°C° 0 mm 2 mps 743 mmHg 70%
    20:00 +13°C° 0.6 mm 3 mps 742 mmHg 74%
    21:00 +13°C° 0.6 mm 3 mps 741 mmHg 79%
    22:00 +12°C° 0.6 mm 3 mps 740 mmHg 84%
    23:00 +13°C° 1.7 mm 5 mps 738 mmHg 82%

    Day after tomorrow, 24 September, Monday

    Time Temperature Precipitation Wind Pressure Humidity
    00:00 +13°C° 1.7 mm 6 mps 736 mmHg 81%
    01:00 +14°C° 1.7 mm 7 mps 735 mmHg 80%
    02:00 +13°C° 3.7 mm 8 mps 734 mmHg 82%
    03:00 +15°C° 3.7 mm 8 mps 732 mmHg 83%
    04:00 +15°C° 3.7 mm 9 mps 731 mmHg 85%
    05:00 +13°C° 0.5 mm 10 mps 733 mmHg 84%
    06:00 +11°C° 0.5 mm 11 mps 734 mmHg 83%
    07:00 +9°C° 0.5 mm 13 mps 735 mmHg 83%
    08:00 +9°C° 0.1 mm 12 mps 737 mmHg 80%
    09:00 +9°C° 0.1 mm 11 mps 739 mmHg 78%
    10:00 +8°C° 0.1 mm 10 mps 741 mmHg 75%
    11:00 +9°C° 0.3 mm 10 mps 742 mmHg 72%
    12:00 +9°C° 0.3 mm 10 mps 743 mmHg 69%
    13:00 +11°C° 0.3 mm 10 mps 744 mmHg 66%
    14:00 +11°C° 0.2 mm 10 mps 745 mmHg 65%
    15:00 +9°C° 0.2 mm 10 mps 745 mmHg 63%
    16:00 +10°C° 0.2 mm 9 mps 746 mmHg 62%
    17:00 +10°C° 0.1 mm 9 mps 746 mmHg 65%
    18:00 +9°C° 0.1 mm 8 mps 747 mmHg 69%
    19:00 +7°C° 0.1 mm 8 mps 748 mmHg 72%
    20:00 +7°C° 0 mm 8 mps 748 mmHg 72%
    21:00 +6°C° 0 mm 7 mps 749 mmHg 71%
    22:00 +6°C° 0 mm 7 mps 750 mmHg 70%
    23:00 +5°C° 0 mm 7 mps 750 mmHg 70%

    25 September, Tuesday

    Time Temperature Precipitation Wind Pressure Humidity
    00:00 +5°C° 0 mm 6 mps 751 mmHg 70%
    01:00 +5°C° 0 mm 6 mps 752 mmHg 70%
    02:00 +5°C° 0 mm 6 mps 752 mmHg 71%
    03:00 +5°C° 0 mm 5 mps 753 mmHg 73%
    04:00 +5°C° 0 mm 5 mps 753 mmHg 74%
    05:00 +5°C° 0 mm 5 mps 754 mmHg 73%
    06:00 +5°C° 0 mm 6 mps 754 mmHg 72%
    07:00 +5°C° 0 mm 6 mps 755 mmHg 71%
    08:00 +6°C° 0 mm 7 mps 755 mmHg 65%
    09:00 +9°C° 0 mm 7 mps 756 mmHg 58%
    10:00 +10°C° 0 mm 7 mps 756 mmHg 52%
    11:00 +10°C° 0.2 mm 7 mps 756 mmHg 50%
    12:00 +11°C° 0.2 mm 8 mps 757 mmHg 47%
    13:00 +11°C° 0.2 mm 8 mps 757 mmHg 45%
    14:00 +11°C° 0 mm 7 mps 757 mmHg 46%
    15:00 +11°C° 0 mm 6 mps 757 mmHg 46%
    16:00 +12°C° 0 mm 5 mps 757 mmHg 47%
    17:00 +10°C° 0 mm 5 mps 757 mmHg 51%
    18:00 +8°C° 0 mm 5 mps 757 mmHg 54%
    19:00 +7°C° 0 mm 4 mps 758 mmHg 58%
    20:00 +7°C° 0 mm 4 mps 757 mmHg 58%
    21:00 +7°C° 0 mm 5 mps 757 mmHg 58%
    22:00 +7°C° 0 mm 5 mps 757 mmHg 58%
    23:00 +7°C° 0 mm 5 mps 757 mmHg 59%

    26 September, Wednesday

    Time Temperature Precipitation Wind Pressure Humidity
    00:00 +7°C° 0 mm 6 mps 756 mmHg 60%
    01:00 +7°C° 0 mm 6 mps 756 mmHg 60%
    02:00 +6°C° 0.1 mm 7 mps 756 mmHg 63%
    03:00 +6°C° 0.1 mm 7 mps 755 mmHg 66%
    04:00 +6°C° 0.1 mm 8 mps 755 mmHg 68%
    05:00 +6°C° 0.3 mm 8 mps 755 mmHg 71%
    06:00 +6°C° 0.3 mm 8 mps 754 mmHg 74%
    07:00 +7°C° 0.3 mm 8 mps 754 mmHg 77%
    08:00 +7°C° 0.4 mm 8 mps 755 mmHg 76%
    09:00 +9°C° 0.4 mm 8 mps 755 mmHg 76%
    10:00 +9°C° 0.4 mm 7 mps 755 mmHg 76%
    11:00 +10°C° 0.1 mm 7 mps 755 mmHg 71%
    12:00 +11°C° 0.1 mm 7 mps 755 mmHg 66%
    13:00 +12°C° 0.1 mm 7 mps 755 mmHg 62%
    14:00 +13°C° 0.1 mm 6 mps 755 mmHg 64%
    15:00 +13°C° 0.1 mm 5 mps 755 mmHg 66%
    16:00 +12°C° 0.1 mm 5 mps 755 mmHg 68%
    17:00 +12°C° 0 mm 4 mps 756 mmHg 75%
    18:00 +11°C° 0 mm 4 mps 756 mmHg 81%
    19:00 +10°C° 0 mm 3 mps 756 mmHg 88%
    20:00 +10°C° 0 mm 3 mps 756 mmHg 88%
    21:00 +10°C° 0 mm 3 mps 756 mmHg 87%
    22:00 +10°C° 0 mm 2 mps 756 mmHg 87%
    23:00 +10°C° 0 mm 2 mps 756 mmHg 88%

    27 September, Thursday

    Time Temperature Precipitation Wind Pressure Humidity
    00:00 +9°C° 0 mm 2 mps 756 mmHg 88%
    01:00 +9°C° 0 mm 2 mps 756 mmHg 88%
    02:00 +9°C° 0 mm 3 mps 755 mmHg 88%
    03:00 +8°C° 0 mm 3 mps 755 mmHg 88%
    04:00 +8°C° 0 mm 3 mps 755 mmHg 89%
    05:00 +8°C° 0 mm 3 mps 755 mmHg 85%
    06:00 +9°C° 0 mm 3 mps 755 mmHg 82%
    07:00 +10°C° 0 mm 4 mps 755 mmHg 79%
    08:00 +11°C° 0 mm 4 mps 754 mmHg 72%
    09:00 +13°C° 0 mm 4 mps 754 mmHg 65%
    10:00 +14°C° 0 mm 5 mps 754 mmHg 58%
    11:00 +16°C° 0 mm 5 mps 753 mmHg 53%
    12:00 +17°C° 0 mm 5 mps 752 mmHg 49%
    13:00 +19°C° 0 mm 6 mps 752 mmHg 45%
    14:00 +19°C° 0 mm 5 mps 751 mmHg 46%
    15:00 +18°C° 0 mm 4 mps 751 mmHg 48%
    16:00 +18°C° 0 mm 4 mps 750 mmHg 50%
    17:00 +17°C° 0 mm 4 mps 750 mmHg 53%
    18:00 +14°C° 0 mm 4 mps 750 mmHg 56%
    19:00 +13°C° 0 mm 4 mps 749 mmHg 59%
    20:00 +13°C° 0 mm 4 mps 749 mmHg 59%
    21:00 +12°C° 0 mm 5 mps 749 mmHg 59%
    22:00 +12°C° 0 mm 5 mps 749 mmHg 58%
    23:00 +12°C° 0 mm 5 mps 749 mmHg 60%
    Show more